• In Uzbekistan
  • List of Countries
  • For 7 days
  • Water Temperature
  • Satellite Maps
  • Weather Map
  • Weather Widgets
  • user-avatar
    Login

    Hourly Weather Namibe

    Today, 9 December, Friday

    Time Temperature Precipitation Wind Pressure Humidity
    00:00 +29°C° 0.5 mm 3 mps 758 mmHg 65%
    01:00 +28°C° 0 mm 3 mps 758 mmHg 66%
    02:00 +28°C° 0.7 mm 3 mps 758 mmHg 68%
    03:00 +28°C° 0.7 mm 3 mps 758 mmHg 70%
    04:00 +27°C° 0.7 mm 3 mps 757 mmHg 71%
    05:00 +27°C° 1 mm 2 mps 758 mmHg 71%
    06:00 +27°C° 1 mm 2 mps 758 mmHg 71%
    07:00 +28°C° 0 mm 2 mps 759 mmHg 69%
    08:00 +29°C° 0.4 mm 2 mps 758 mmHg 63%
    09:00 +31°C° 0.4 mm 3 mps 758 mmHg 57%
    10:00 +34°C° 0.4 mm 3 mps 758 mmHg 50%
    11:00 +35°C° 0 mm 4 mps 758 mmHg 48%
    12:00 +36°C° 0 mm 4 mps 757 mmHg 46%
    13:00 +36°C° 0 mm 5 mps 757 mmHg 44%
    14:00 +36°C° 0 mm 5 mps 757 mmHg 46%
    15:00 +35°C° 0 mm 5 mps 756 mmHg 48%
    16:00 +34°C° 0 mm 5 mps 756 mmHg 50%
    17:00 +33°C° 0.2 mm 5 mps 756 mmHg 54%
    18:00 +32°C° 0.2 mm 4 mps 757 mmHg 59%
    19:00 +30°C° 0.2 mm 4 mps 757 mmHg 63%
    20:00 +29°C° 0 mm 3 mps 757 mmHg 65%
    21:00 +29°C° 0 mm 3 mps 758 mmHg 67%
    22:00 +29°C° 0 mm 3 mps 758 mmHg 68%
    23:00 +28°C° 0.2 mm 3 mps 758 mmHg 70%

    Tomorrow, 10 December, Saturday

    Time Temperature Precipitation Wind Pressure Humidity
    00:00 +28°C° 0.2 mm 2 mps 758 mmHg 71%
    01:00 +28°C° 0.2 mm 2 mps 758 mmHg 73%
    02:00 +28°C° 0.1 mm 2 mps 758 mmHg 75%
    03:00 +27°C° 0.1 mm 2 mps 757 mmHg 77%
    04:00 +27°C° 0.1 mm 1 mps 757 mmHg 80%
    05:00 +27°C° 0.3 mm 1 mps 758 mmHg 79%
    06:00 +27°C° 0.3 mm 1 mps 758 mmHg 78%
    07:00 +27°C° 0.3 mm 1 mps 758 mmHg 77%
    08:00 +29°C° 0.6 mm 1 mps 758 mmHg 69%
    09:00 +31°C° 0.6 mm 2 mps 758 mmHg 60%
    10:00 +34°C° 0.6 mm 2 mps 758 mmHg 52%
    11:00 +34°C° 0.2 mm 3 mps 758 mmHg 50%
    12:00 +35°C° 0.2 mm 4 mps 757 mmHg 47%
    13:00 +36°C° 0.2 mm 5 mps 757 mmHg 45%
    14:00 +35°C° 0.1 mm 5 mps 756 mmHg 48%
    15:00 +35°C° 0.1 mm 5 mps 756 mmHg 51%
    16:00 +34°C° 0.1 mm 5 mps 756 mmHg 54%
    17:00 +32°C° 0.1 mm 4 mps 756 mmHg 59%
    18:00 +30°C° 0.1 mm 4 mps 756 mmHg 65%
    19:00 +29°C° 0.1 mm 3 mps 757 mmHg 70%
    20:00 +28°C° 0 mm 3 mps 757 mmHg 71%
    21:00 +28°C° 0 mm 2 mps 757 mmHg 73%
    22:00 +28°C° 0 mm 2 mps 758 mmHg 74%
    23:00 +28°C° 0 mm 1 mps 757 mmHg 74%

    Day after tomorrow, 11 December, Sunday

    Time Temperature Precipitation Wind Pressure Humidity
    00:00 +28°C° 0 mm 1 mps 757 mmHg 74%
    01:00 +28°C° 0 mm 1 mps 757 mmHg 74%
    02:00 +28°C° 0 mm 1 mps 756 mmHg 75%
    03:00 +28°C° 0 mm 1 mps 756 mmHg 75%
    04:00 +27°C° 0 mm 1 mps 756 mmHg 76%
    05:00 +28°C° 0 mm 1 mps 756 mmHg 76%
    06:00 +28°C° 0 mm 1 mps 757 mmHg 75%
    07:00 +28°C° 0 mm 1 mps 757 mmHg 75%
    08:00 +29°C° 0 mm 2 mps 757 mmHg 68%
    09:00 +31°C° 0 mm 2 mps 757 mmHg 61%
    10:00 +34°C° 0 mm 3 mps 758 mmHg 54%
    11:00 +34°C° 0 mm 3 mps 757 mmHg 52%
    12:00 +35°C° 0 mm 4 mps 756 mmHg 49%
    13:00 +36°C° 0 mm 5 mps 756 mmHg 47%
    14:00 +35°C° 0 mm 5 mps 755 mmHg 50%
    15:00 +35°C° 0 mm 5 mps 755 mmHg 52%
    16:00 +34°C° 0 mm 5 mps 754 mmHg 55%
    17:00 +32°C° 0 mm 5 mps 755 mmHg 60%
    18:00 +30°C° 0 mm 4 mps 756 mmHg 64%
    19:00 +29°C° 0 mm 4 mps 756 mmHg 69%
    20:00 +28°C° 0.1 mm 3 mps 757 mmHg 71%
    21:00 +28°C° 0.1 mm 2 mps 757 mmHg 73%
    22:00 +28°C° 0.1 mm 2 mps 758 mmHg 76%
    23:00 +28°C° 0.1 mm 2 mps 758 mmHg 77%

    12 December, Monday

    Time Temperature Precipitation Wind Pressure Humidity
    00:00 +27°C° 0.1 mm 1 mps 757 mmHg 78%
    01:00 +27°C° 0.1 mm 1 mps 757 mmHg 79%
    02:00 +27°C° 0.3 mm 1 mps 757 mmHg 80%
    03:00 +27°C° 0.3 mm 1 mps 757 mmHg 81%
    04:00 +27°C° 0.3 mm 2 mps 757 mmHg 81%
    05:00 +27°C° 0 mm 1 mps 757 mmHg 81%
    06:00 +27°C° 0 mm 1 mps 757 mmHg 80%
    07:00 +28°C° 0 mm 1 mps 758 mmHg 80%
    08:00 +29°C° 0 mm 2 mps 758 mmHg 72%
    09:00 +31°C° 0 mm 3 mps 758 mmHg 64%
    10:00 +34°C° 0 mm 4 mps 758 mmHg 56%
    11:00 +34°C° 0.1 mm 4 mps 757 mmHg 54%
    12:00 +35°C° 0.1 mm 5 mps 757 mmHg 52%
    13:00 +35°C° 0.1 mm 6 mps 756 mmHg 50%
    14:00 +35°C° 0 mm 6 mps 756 mmHg 53%
    15:00 +34°C° 0 mm 6 mps 755 mmHg 55%
    16:00 +33°C° 0 mm 6 mps 755 mmHg 57%
    17:00 +32°C° 0 mm 5 mps 756 mmHg 62%
    18:00 +30°C° 0 mm 4 mps 756 mmHg 67%
    19:00 +28°C° 0 mm 3 mps 757 mmHg 71%
    20:00 +28°C° 0 mm 3 mps 757 mmHg 73%
    21:00 +28°C° 0 mm 2 mps 757 mmHg 74%
    22:00 +27°C° 0 mm 2 mps 757 mmHg 75%
    23:00 +27°C° 0.6 mm 2 mps 757 mmHg 76%

    13 December, Tuesday

    Time Temperature Precipitation Wind Pressure Humidity
    00:00 +27°C° 0.6 mm 1 mps 757 mmHg 77%
    01:00 +27°C° 0.6 mm 1 mps 757 mmHg 77%
    02:00 +27°C° 0.1 mm 1 mps 756 mmHg 78%
    03:00 +27°C° 0.1 mm 1 mps 756 mmHg 79%
    04:00 +27°C° 0.1 mm 2 mps 756 mmHg 80%
    05:00 +27°C° 0 mm 1 mps 756 mmHg 79%
    06:00 +27°C° 0 mm 1 mps 757 mmHg 79%
    07:00 +27°C° 0 mm 1 mps 757 mmHg 79%
    08:00 +29°C° 0 mm 1 mps 757 mmHg 73%
    09:00 +30°C° 0 mm 2 mps 758 mmHg 66%
    10:00 +33°C° 0 mm 3 mps 758 mmHg 60%
    11:00 +34°C° 0 mm 4 mps 757 mmHg 59%
    12:00 +34°C° 0 mm 5 mps 757 mmHg 57%
    13:00 +35°C° 0 mm 6 mps 756 mmHg 56%
    14:00 +34°C° 0 mm 5 mps 756 mmHg 58%
    15:00 +33°C° 0 mm 5 mps 756 mmHg 61%
    16:00 +32°C° 0 mm 5 mps 755 mmHg 63%
    17:00 +30°C° 0 mm 5 mps 756 mmHg 68%
    18:00 +29°C° 0 mm 4 mps 756 mmHg 72%
    19:00 +28°C° 0 mm 3 mps 757 mmHg 76%
    20:00 +27°C° 0 mm 3 mps 757 mmHg 77%
    21:00 +27°C° 0 mm 2 mps 758 mmHg 78%
    22:00 +27°C° 0 mm 2 mps 758 mmHg 78%
    23:00 +27°C° 0 mm 2 mps 758 mmHg 79%

    14 December, Wednesday

    Time Temperature Precipitation Wind Pressure Humidity
    00:00 +27°C° 0 mm 2 mps 758 mmHg 80%
    01:00 +26°C° 0 mm 2 mps 757 mmHg 80%
    02:00 +26°C° 0 mm 2 mps 757 mmHg 81%
    03:00 +26°C° 0 mm 2 mps 757 mmHg 82%
    04:00 +26°C° 0 mm 2 mps 757 mmHg 83%
    05:00 +26°C° 0 mm 1 mps 758 mmHg 81%
    06:00 +26°C° 0 mm 1 mps 758 mmHg 80%
    07:00 +27°C° 0 mm 1 mps 758 mmHg 79%
    08:00 +28°C° 0 mm 2 mps 758 mmHg 72%
    09:00 +30°C° 0 mm 2 mps 758 mmHg 64%
    10:00 +31°C° 0 mm 2 mps 758 mmHg 57%
    11:00 +33°C° 0 mm 3 mps 758 mmHg 55%
    12:00 +34°C° 0 mm 4 mps 757 mmHg 52%
    13:00 +35°C° 0 mm 5 mps 757 mmHg 50%
    14:00 +34°C° 0 mm 5 mps 757 mmHg 53%
    15:00 +33°C° 0 mm 5 mps 756 mmHg 56%
    16:00 +33°C° 0 mm 6 mps 756 mmHg 59%
    17:00 +30°C° 0 mm 5 mps 757 mmHg 64%
    18:00 +29°C° 0 mm 5 mps 757 mmHg 69%
    19:00 +28°C° 0 mm 4 mps 758 mmHg 74%
    20:00 +27°C° 0 mm 4 mps 758 mmHg 75%
    21:00 +27°C° 0 mm 3 mps 759 mmHg 76%
    22:00 +27°C° 0 mm 3 mps 759 mmHg 77%
    23:00 +27°C° 0 mm 3 mps 759 mmHg 78%
    Show more